Olbia, Italy

1:01 PM CET on February 11, 2016 (GMT +0100)
Olbia

Weather History for 16531 - August, 2013

Change the Weather History Date:

Thursday, August 22, 2013

  Actual Average Record
Temperature  
Mean Temperature 76 °F -  
Max Temperature 86 °F 81 °F - ()
Min Temperature 66 °F 61 °F - ()
Cooling Degree Days 11    
Growing Degree Days 26 (Base 50)    
Moisture  
Dew Point 61 °F    
Average Humidity 63    
Maximum Humidity 88    
Minimum Humidity 31    
Precipitation  
Precipitation 0.00 in 0.05 in - ()
Sea Level Pressure  
Sea Level Pressure 30.00 in    
Wind  
Wind Speed 6 mph ()    
Max Wind Speed 13 mph    
Max Gust Speed -    
Visibility 6.2 miles    
Events      
T = Trace of Precipitation, MM = Missing Value Source: Averaged Metar Reports

Daily Weather History Graph

Daily Weather History Graph

Search for Another Location

Airport or City:

Trip Planner

Search our weather history database for the weather conditions in past years. The results will help you decide how hot, cold, wet, or windy it might be!

Date:

Astronomy

Aug. 22, 2013 Rise Set
Actual Time 6:38 AM CEST 8:10 PM CEST
Civil Twilight 6:09 AM CEST 8:38 PM CEST
Nautical Twilight 5:35 AM CEST 9:13 PM CEST
Astronomical Twilight 4:58 AM CEST 9:50 PM CEST
Moon 8:43 PM CEST (8/22) 8:09 AM CEST (8/22)
Length of Visible Light 14h 28m
Length of Day
13h 31m
Full, 98% of the Moon is Illuminated
Aug 22
Full
Aug 28
Last Quarter
Sep 5
New
Sep 12
First Quarter
Sep 19
Full

Hourly Weather History & Observations

Time (CEST) Temp. Heat Index Dew Point Humidity Pressure Visibility Wind Dir Wind Speed Gust Speed Precip Events Conditions
12:20 AM 69.8 °F - 62.6 °F 78% 30.04 in - South 4.6 mph - N/A   Clear
12:50 AM 68.0 °F - 60.8 °F 78% 30.04 in - SSW 5.8 mph - N/A   Clear
1:20 AM 68.0 °F - 60.8 °F 78% 30.04 in - SW 4.6 mph - N/A   Clear
1:50 AM 68.0 °F - 60.8 °F 78% 30.01 in - SSW 4.6 mph - N/A   Clear
2:20 AM 68.0 °F - 60.8 °F 78% 30.01 in - South 3.5 mph - N/A   Clear
2:50 AM 66.2 °F - 60.8 °F 83% 30.01 in - SSW 3.5 mph - N/A   Clear
3:20 AM 66.2 °F - 60.8 °F 83% 30.01 in - SSW 5.8 mph - N/A   Clear
3:50 AM 68.0 °F - 62.6 °F 83% 30.01 in - South 4.6 mph - N/A   Clear
4:20 AM 66.2 °F - 62.6 °F 88% 30.01 in - SSW 5.8 mph - N/A   Clear
4:50 AM 66.2 °F - 60.8 °F 83% 30.01 in - SSW 4.6 mph - N/A   Clear
5:20 AM 66.2 °F - 60.8 °F 83% 30.01 in - SSW 3.5 mph - N/A   Clear
5:50 AM 66.2 °F - 62.6 °F 88% 30.01 in - South 5.8 mph - N/A   Clear
6:20 AM 66.2 °F - 60.8 °F 83% 29.98 in - SSW 6.9 mph - N/A   Clear
6:50 AM 66.2 °F - 60.8 °F 83% 30.01 in - South 3.5 mph - N/A   Clear
7:20 AM 68.0 °F - 62.6 °F 83% 30.01 in - SSW 5.8 mph - N/A   Clear
7:50 AM 69.8 °F - 62.6 °F 78% 30.01 in - SSW 3.5 mph - N/A   Clear
8:20 AM 73.4 °F - 62.6 °F 69% 30.01 in - SSW 5.8 mph - N/A   Clear
8:50 AM 77.0 °F - 64.4 °F 65% 30.01 in - South 4.6 mph - N/A   Clear
9:20 AM 78.8 °F - 66.2 °F 65% 30.01 in - North 3.5 mph - N/A   Clear
9:50 AM 80.6 °F 82.7 °F 66.2 °F 61% 30.01 in 6.2 mi North 5.8 mph - N/A   Partly Cloudy
10:20 AM 82.4 °F 84.6 °F 66.2 °F 58% 30.01 in 6.2 mi NNE 9.2 mph - N/A   Partly Cloudy
10:50 AM 82.4 °F 82.9 °F 60.8 °F 48% 30.01 in 6.2 mi ENE 9.2 mph - N/A   Partly Cloudy
11:20 AM 84.2 °F 85.6 °F 64.4 °F 51% 30.01 in 6.2 mi ENE 8.1 mph - N/A   Partly Cloudy
11:50 AM 84.2 °F 84.4 °F 60.8 °F 45% 30.01 in 6.2 mi ENE 6.9 mph - N/A   Partly Cloudy
12:20 PM 84.2 °F 83.5 °F 57.2 °F 40% 30.01 in 6.2 mi ENE 8.1 mph - N/A   Partly Cloudy
12:50 PM 84.2 °F 83.8 °F 59.0 °F 42% 30.01 in 6.2 mi NE 9.2 mph - N/A   Partly Cloudy
1:20 PM 86.0 °F 86.1 °F 60.8 °F 43% 30.01 in 6.2 mi NE 9.2 mph - N/A   Partly Cloudy
1:50 PM 86.0 °F 86.1 °F 60.8 °F 43% 30.01 in 6.2 mi NE 10.4 mph - N/A   Partly Cloudy
2:20 PM 86.0 °F 84.2 °F 53.6 °F 33% 30.01 in - NE 11.5 mph - N/A   Clear
2:50 PM 86.0 °F - 51.8 °F 31% 30.01 in - NE 10.4 mph - N/A   Clear
3:20 PM 86.0 °F - 51.8 °F 31% 29.98 in - NE 11.5 mph - N/A   Clear
3:50 PM 86.0 °F 84.2 °F 53.6 °F 33% 29.98 in - NE 12.7 mph - N/A   Clear
4:20 PM 86.0 °F 84.5 °F 55.4 °F 35% 29.98 in - NE 12.7 mph - N/A   Clear
4:50 PM 86.0 °F 84.5 °F 55.4 °F 35% 29.98 in - NE 11.5 mph - N/A   Clear
5:20 PM 84.2 °F 84.4 °F 60.8 °F 45% 29.98 in - NE 10.4 mph - N/A   Clear
5:50 PM 84.2 °F 85.6 °F 64.4 °F 51% 29.98 in - NE 10.4 mph - N/A   Clear
6:20 PM 82.4 °F 83.9 °F 64.4 °F 54% 29.95 in - NE 9.2 mph - N/A   Clear
6:50 PM 82.4 °F 83.9 °F 64.4 °F 54% 29.95 in - NE 8.1 mph - N/A   Clear
7:20 PM 80.6 °F 82.3 °F 64.4 °F 58% 29.95 in - NE 6.9 mph - N/A   Clear
7:50 PM 80.6 °F 82.3 °F 64.4 °F 58% 29.95 in - ENE 5.8 mph - N/A   Clear
8:20 PM 77.0 °F - 64.4 °F 65% 29.98 in - ENE 3.5 mph - N/A   Clear
8:50 PM 77.0 °F - 64.4 °F 65% 29.98 in - East 2.3 mph - N/A   Clear
9:20 PM 75.2 °F - 66.2 °F 73% 29.98 in - Variable 2.3 mph - N/A   Clear
9:50 PM 75.2 °F - 66.2 °F 73% 30.01 in - Variable 1.2 mph - N/A   Clear
10:20 PM 73.4 °F - 66.2 °F 78% 30.01 in - SSE 3.5 mph - N/A   Clear
10:50 PM 71.6 °F - 62.6 °F 73% 30.01 in - SSW 4.6 mph - N/A   Clear
11:20 PM 71.6 °F - 62.6 °F 73% 30.01 in - South 4.6 mph - N/A   Clear
11:50 PM 69.8 °F - 60.8 °F 73% 30.01 in - SSW 3.5 mph - N/A   Clear